DELTA 1 DEB

Satellite information

Favourite Embed

Satellite Type and Status

DEBRISIN ORBIT

Key statistics

Satellite DELTA 1 DEB at a glance.

Uptime

17231

Days in orbit

Revolutions

≈ 14.3

Per day

Orbit

SSO

Sun Synchronous Orbit

Inclination

99.0

Latest

Satellite identification and parameters

Extended collection of information and parameters for DELTA 1 DEB.

Object identification

Identified? True

Debris? True

Object name: DELTA 1 DEB

International designator: 1978-026EY

Object number (NORAD): 13561

Object ID (CCSDS): 13561

Country: UNITED STATES OF AMERICA (US)

Current information (Y/N): Y

RCS size: SMALL

Orbital parameters

Period: 100.483 minutes

Inclination: 99.0327 deg

SMA: 7159.609 km

Apoapsis: 873.739 km

Periapsis: 689.21 km

RAAN: 340.0169 deg

Eccentricy: 0.0128868

Argument of periapsis: 48.5111 deg

Mean anomaly: 71.8593 deg

Mean motion: 14.33074508 rev/day

Mean motion (dot): 0.00006614 rev/day2

B* drag term: 0.0022143 1/REarth

Two-line elements (TLE)

Creation date: May 7, 2025, 3:14 a.m.

Reference frame: TEME

Reference center: EARTH

Epoch: May 6, 2025, 3:53 a.m. UTC

TLE line 0: 0 DELTA 1 DEB

TLE line 1: 1 13561U 78026EY 25126.16214091 .00006614 00000-0 22143-2 0 9990

TLE line 2: 2 13561 99.0327 340.0169 0128868 48.5111 71.8593 14.33074508238296

Live tracking on map

Real-time ground track for satellite DELTA 1 DEB.

In-orbit conjunctions

A list of the most updated potential collisions computed for object DELTA 1 DEB.

Target Orbit TCA Probability of collision Miss distance Type
FENGYUN 1C DEB SSO 2025-01-23 22:22:00 0.000105638 98.0 (m) DEBRIS
CZ-6A DEB LEO 2024-11-28 08:38:18 0.0001444647 308.0 (m) DEBRIS
COSMOS 1275 DEB LEO 2024-11-14 07:47:10 0.000160007 269.0 (m) DEBRIS
KITSAT 3 SSO 2024-11-10 20:31:55 0.0001589543 454.0 (m) PAYLOAD

Associated space launch

Earth observation satellite

DELTA 1 DEB was lifted into orbit during the mission ‘Delta 2910 | Landsat 3’, on board a Delta 2910 space rocket.

The launch took place on March 5, 1978, 5:54 p.m. from Space Launch Complex 2W.

For more information about the launch, click the button.

Launch to space Delta 2910 | Landsat 3
Delta 2910 | Landsat 3

Agency: N/A

Status: Launch Successful

Launch date: March 5, 1978, 5:54 p.m. UTC

Rocket: Delta 2910

Launch pad: Space Launch Complex 2W

Location: Vandenberg SFB, CA, USA

...

Latest news about this satellite

There are no fresh news available about this satellite. Check back as we update our databases every day.


Newsletter sign-up

Weekly statistics, charts and insights to help you stay on top of the space industry.